Location: Freistadt
(48.5112°N, 14.5013°E)
Time: 22:54:20
(UTC+02:00)

O/OREOS (USA 219) - Pass Details

Date: 10 April 2023
Orbit: 621 x 646 km, 72.0° (Epoch: 22 May)

Event Time Altitude Azimuth Distance (km) Brightness Sun altitude
Exits shadow 02:38:42 17° 95° (E) 1,637 ? -29.9°
Drops below altitude 10° 02:41:15 10° 61° (ENE) 2,027 ? -29.7°
Sets 02:44:12 0° 41° (NE) 2,935 ? -29.5°
